Location: Seasalter
(51.3333°N, 1.0167°E)
Time: 11:29:06
(UTC+00:00)

Cosmos 1271 Rocket - Pass Details

Date: 26 September 2023
Orbit: 480 x 522 km, 81.2° (Epoch: 29 November)

Event Time Altitude Azimuth Distance (km) Brightness Sun altitude
Rises 04:32:11 0° 346° (NNW) 2,635 6.3 -12.5°
Reaches altitude 10° 04:34:21 10° 346° (NNW) 1,736 5.4 -12.2°
Maximum altitude 04:38:10 84° 259° (WSW) 512 2.6 -11.6°
Drops below altitude 10° 04:41:52 10° 171° (S) 1,692 5.3 -11.1°
Sets 04:43:57 0° 171° (S) 2,562 6.2 -10.7°
